Regional Weather Roundup
Issued by NWS

Home | Current Version | Previous Version | Text Only | Print | Product List | Glossary Off
Versions: 1 2 3 4 5 6 7 8 9 10 11 12 13 14 15 16 17 18 19 20 21 22 23 24 25 26 27 28 29 30 31 32 33 34 35 36 37 38 39 40 41 42 43 44 45 46 47 48 49 50

000
ASUS43 KLOT 221004
RWRIL

ILLINOIS REGIONAL WEATHER ROUNDUP
NATIONAL WEATHER SERVICE CHICAGO/ROMEOVILLE IL
500 AM CDT SAT JUL 22 2017

NOTE: "FAIR" INDICATES FEW OR NO CLOUDS BELOW 12,000 FEET WITH NO
SIGNIFICANT WEATHER AND/OR OBSTRUCTIONS TO VISIBILITY.

* THESE STATIONS ARE NOT UNDER NWS QUALITY CONTROL. THEY ALSO MAY NOT
  REPORT WEATHER SUCH AS PRECIPITATION OR FOG.

ILZ001-002-007-009-015-016-024-221100-
NORTHWEST ILLINOIS

CITY           SKY/WX    TMP DP  RH WIND       PRES   REMARKS
MOLINE         TSTM      70  68  93 E10       29.92R VSB 1
STERLING*      TSTM      69  68  96 VRB7      29.84F
SAVANNA*       CLOUDY    69  68  97 S7        29.86R
$$

ILZ003-004-008-010-011-017-018-221100-
NORTH CENTRAL ILLINOIS

CITY           SKY/WX    TMP DP  RH WIND       PRES   REMARKS
ROCKFORD       TSTM      71  67  87 SW12G23   29.82F
FREEPORT*      LGT RAIN  67  67 100 SW13      29.82F
ROCHELLE*      TSTM      67  67  99 S8        29.83R
DE KALB*       RAIN      69  69  98 S18       29.84S
$$

ILZ005-006-012>014-019>023-221100-
NORTHEAST ILLINOIS

CITY           SKY/WX    TMP DP  RH WIND       PRES   REMARKS
CHICAGO-OHARE  RAIN      73  69  87 SW21G28   29.80F
CHICAGO-MIDWAY TSTM      73  71  93 SW15      29.81F FOG
AURORA         TSTM      70  70 100 S12       29.85F FOG
LANSING*       CLOUDY    72  69  92 W6        29.86F
JOLIET*        RAIN      72  72  99 CALM      29.85F
WAUKEGAN       CLOUDY    72  72 100 NW8       29.78R
DUPAGE AIRPORT LGT RAIN  71  71 100 S16       29.81F FOG
WHEELING       LGT RAIN  73  72  96 S20G29    29.77F
MORRIS*        HVY RAIN  70  68  95 W14       29.88R
NORTHERLY ISL    N/A     73  69  87 S20         N/A
$$

LMZ740>746-221100-
SOUTHERN LAKE MICHIGAN

STATION/POSITION SKY/WX   TEMP    WIND        PRES    VSBY  WAVE
                          AIR SEA DIR/SP/G                  HT/PER
                          (F)     (DEG/KT/KT) (MB)    (MI)  (FT/S)
WILMETTE HARBOR            73 72  220/ 17/ 23   N/A           2/ 3
HARRISON CRIB              74     210/ 24/ 26   N/A
BURNHAM HARBOR             73                   N/A
CALUMET HARBOR             72     220/  6/  9 1010.1F
BURNS HARBOR               72     260/ 14/ 16 1011.2R
MICHIGAN CITY              72     170/ 10/ 12   N/A
MICHIGAN CITY 6N           73 74  200/ 16/ 19   N/A           1
ST. JOSEPH                 73 75  180/ 12/ 17 1008.3F         2
$$

ILZ025>027-034>036-040-047-049-050-058-095>099-221100-
WEST-CENTRAL ILLINOIS

CITY           SKY/WX    TMP DP  RH WIND       PRES   REMARKS
QUINCY         CLOUDY    82  69  64 SW12      29.80F HX  85
GALESBURG*     TSTM      69  67  93 NE13G20   29.89S
MACOMB*        CLOUDY    75  67  74 NE16      29.88R
JACKSONVILLE*  CLOUDY    81  71  71 SW10      29.82S HX  84
PITTSFIELD*    PTCLDY    83  71  67 SW12      29.84S HX  87
$$

ILZ028>032-037-038-041>044-048-051>054-059>061-221100-
CENTRAL ILLINOIS

CITY           SKY/WX    TMP DP  RH WIND       PRES   REMARKS
BLOOMINGTON    CLOUDY    72  68  87 NE8       29.89R
DECATUR        CLOUDY    80  74  81 S12       29.87R HX  85
PEORIA         CLOUDY    76  67  73 NE7       29.89R
LACON*         TSTM      70  69  99 N3        29.89R
LINCOLN*       CLOUDY    81  74  80 N7        29.87R HX  86
SPRINGFIELD    LGT RAIN  82  75  79 CALM      29.85R HX  89
TAYLORVILLE    NOT AVBL
$$

ILZ033-039-045-046-055>057-062-063-221100-
EAST-CENTRAL ILLINOIS

CITY           SKY/WX    TMP DP  RH WIND       PRES   REMARKS
CHAMPAIGN      CLOUDY    79  74  84 SW6       29.86R HX  82
RANTOUL*       CLOUDY    74  73  95 S3        29.85F
MATTOON        CLOUDY    80  77  90 SW7       29.85R HX  87
PARIS*         CLOUDY    78  76  94 S3        29.87R HX  81
$$

ILZ079-100>102-221100-
SOUTHWEST ILLINOIS

CITY           SKY/WX    TMP DP  RH WIND       PRES   REMARKS
ALTON          CLEAR     80  74  82 SW7       29.86S HX  84
BELLEVILLE     CLEAR     77  74  88 CALM      29.88R
CAHOKIA*       CLEAR     83  73  72 SW7       29.86S HX  89
SPARTA*        CLEAR     79  74  85 SW5       29.90S HX  83
$$

ILZ064>066-069>071-074>076-080>082-084>086-088>090-092>094-221100-
SOUTH-CENTRAL ILLINOIS

CITY           SKY/WX    TMP DP  RH WIND       PRES   REMARKS
CARBONDALE     CLEAR     79  76  90 SW8       29.90R HX  83
CAIRO*         CLEAR     81  75  84 SW6       29.91S HX  86
EFFINGHAM*     CLEAR     80  76  87 S6        29.88S HX  86
MARION         CLEAR     79  79 100 S7        29.91R HX  83
MT. VERNON     CLEAR     77  75  93 SW3       29.88F
CENTRALIA*     CLEAR     80  76  89 SW5       29.88R HX  85
SALEM*         CLEAR     82  75  80 S5        29.88S HX  88
METROPOLIS*    CLEAR     79  75  90 SW3       29.93S HX  82
$$

ILZ067-068-072-073-078-083-087-091-221100-
SOUTHEAST ILLINOIS

CITY           SKY/WX    TMP DP  RH WIND       PRES   REMARKS
LAWRENCEVILLE  CLEAR     77  75  93 S6        29.87F FOG
FLORA*         CLEAR     78  76  93 S6        29.88S HX  80
FAIRFIELD*     CLEAR     77  76  97 S3        29.88S
HARRISBURG*    CLEAR     75  74  97 E3        29.91S FOG
ROBINSON*      CLEAR     77  75  92 SW6       29.87S
CARMI*         CLEAR     74  74 100 S5        29.89F FOG
$$

ABBREVIATIONS USED IN REMARKS
   TC - TEMPERATURE IN CELSIUS
  WCI - WIND CHILL INDEX
   HX - HEAT INDEX
  VSB - VISIBILITY
$$




USA.gov is the U.S. government's official web portal to all federal, state and local government web resources and services.